Regional Weather Roundup
Issued by NWS

Home | Current Version | Previous Version | Graphics & Text | Print | Product List | Glossary Off
Versions: 1 2 3 4 5 6 7 8 9 10 11 12 13 14 15 16 17 18 19 20 21 22 23 24 25 26 27 28 29 30 31 32 33 34 35 36 37 38 39 40 41 42 43 44 45 46 47 48 49 50

000
ASUS43 KMPX 290301
RWRMN
WEATHER ROUNDUP FOR MINNESOTA
NATIONAL WEATHER SERVICE TWIN CITIES/CHANHASSEN MN
1000 PM CDT MON JUL 28 2014


NOTE: "FAIR" INDICATES FEW OR NO CLOUDS BELOW 12,000 FEET WITH NO
SIGNIFICANT WEATHER AND/OR OBSTRUCTIONS TO VISIBILITY. N/A MEANS
CURRENT SKY AND/OR WEATHER CONDITIONS ARE NOT AVAILABLE.

MNZ060>063-068>070-290400-
   Twin Cities Metro

CITY           SKY/WX    TMP DP  RH WIND       PRES   REMARKS
TWIN CITIES    CLEAR     68  56  65 NW5       30.13S
ST PAUL        CLEAR     68  53  58 N6        30.13S
CRYSTAL        CLEAR     69  53  56 W3        30.12S
BLAINE         CLEAR     66  57  72 W3        30.13S
LAKEVILLE      CLEAR     63  55  77 W5        30.14S
EDEN PRAIRIE   CLEAR     67  56  67 NW5       30.13S
SOUTH ST PAUL  CLEAR     67  52  58 CALM      30.13R
LAKE ELMO      FAIR      63  55  77 CALM      30.14R
$$
MNZ001>005-007-008-013>017-022>024-027-028-290400-
   Northwest Minnesota

CITY           SKY/WX    TMP DP  RH WIND       PRES   REMARKS
BEMIDJI        CLEAR     59  53  79 W6        30.18R
HALLOCK        CLEAR     63  57  82 NW3       30.18S
ROSEAU         CLEAR     66  57  72 W7        30.17S
WARROAD        PTCLDY    66  57  72 W8        30.17R
THIEF RVR FALL CLEAR     64  55  72 NW5       30.18S
CROOKSTON      CLEAR     63  57  82 NW5       30.19S
FOSSTON        CLEAR     57  50  77 CALM      30.20S
DETROIT LAKES  CLEAR     63  55  77 NW5       30.21R
MOORHEAD       CLEAR     64  59  82 CALM      30.19S
PARK RAPIDS    CLEAR     59  53  80 NW3       30.18S
$$
MNZ006-009>011-018-025>026-290400-
   North Central Minnesota

CITY           SKY/WX    TMP DP  RH WIND       PRES   REMARKS
BAUDETTE       CLEAR     65  56  72 CALM      30.16R
FLAG ISLAND    CLEAR     72  57  60 NW10      30.14R
INTL FALLS     MOCLDY    66  56  70 N8G18     30.13R
WASKISH        CLEAR     66  57  72 CALM      30.16R
BIG FORK       CLEAR     57  55  94 W1        30.15S
LONGVILLE      CLEAR     61  55  82 NW3       30.16S
GRAND RAPIDS   MOCLDY    64  54  68 NW9       30.15S
CRANE LAKE     MOCLDY    64  55  72 N8G22     30.15R THUNDER
ORR            CLEAR     61  55  82 CALM      30.11R
COOK           CLEAR     61  55  82 W3        30.13S
$$
MNZ012-019>021-037-290400-
   Northeast Minnesota

CITY           SKY/WX    TMP DP  RH WIND       PRES   REMARKS
DULUTH         CLEAR     64  54  69 NW9       30.11R
ELY            MOCLDY    61  55  82 NE10      30.12R
HIBBING        CLEAR     60  53  77 NW6       30.13R
EVELETH        CLEAR     63  54  72 W3        30.14R
DULUTH HARBOR  CLEAR     72  57  60 NW8       30.10R
TWO HARBORS    CLEAR     63  54  72 CALM      30.07S
SILVER BAY     CLEAR     61  57  88 CALM      30.07S
GRAND MARAIS     N/A     67  53  61 N10G18    30.06R
G MARAIS ARPRT MOCLDY    59  50  72 N13       30.11R
$$
MNZ029>031-032-039>041-046>048-054>057-064-290400-
   West Central Minnesota

CITY           SKY/WX    TMP DP  RH WIND       PRES   REMARKS
FERGUS FALLS   CLEAR     63  52  67 N3        30.19S
WHEATON        CLEAR     59  54  82 W3        30.22R
MORRIS         CLEAR     57  54  88 NW5       30.19S
ALEXANDRIA     CLEAR     65  53  65 NW6       30.20S
ELBOW LAKE     FAIR      61  55  79 NW5       30.19S
WADENA         CLEAR     61  54  77 NW5       30.18S
GLENWOOD       CLEAR     59  54  82 NW8       30.20R
APPLETON       CLEAR     61  55  82 NW5       30.19S
BENSON         CLEAR     57  54  88 NW5       30.20R
ORTONVILLE     CLEAR     64  54  68 NW6       30.20S
MADISON        CLEAR     61  55  82 CALM      30.20S
WILLMAR        FAIR      64  54  68 NW6       30.20R
$$
MNZ033>034-036-042>043-049>051-058-059-290400-
   Central Minnesota

CITY           SKY/WX    TMP DP  RH WIND       PRES   REMARKS
ST CLOUD       CLEAR     64  55  72 NW6       30.15S
SAUK CENTRE    FAIR      61  55  78 NW3       30.18S
PAYNESVILLE    CLEAR     56  54  90 SW3       30.18S
AITKIN         CLEAR     61  54  77 CALM      30.14S
PINE RIVER     CLEAR     64  55  72 NW3       30.20R
BRAINERD       CLEAR     64  55  72 NW3       30.17R
STAPLES        CLEAR     61  55  82 NW3       30.18R
LONG PRAIRIE   FAIR      63  54  72 W6        30.18S
LITTLE FALLS   CLEAR     63  54  72 NW3       30.17R
LITCHFIELD     CLEAR     66  57  72 W5        30.18R
BUFFALO        CLEAR     67  54  61 NW5       30.16R
MAPLE LAKE     PTCLDY    67  57  70 NW5       30.16S
$$
MNZ037-044-045-052-053-290400-
   East Central Minnesota

CITY           SKY/WX    TMP DP  RH WIND       PRES   REMARKS
PRINCETON      CLEAR     63  57  82 CALM      30.15R
MORA           CLEAR     59  54  82 CALM      30.16R
CAMBRIDGE      CLEAR     68  54  60 CALM      30.12S
RUSH CITY      PTCLDY    61  55  79 CALM      30.13R
MOOSE LAKE     CLEAR     63  54  72 NW5       30.11S
HINCKLEY       FAIR      63  57  82 NW3       30.13S
CLOQUET        CLEAR     61  54  77 W6        30.13R
MCGREGOR       CLEAR     64  54  68 NW5       30.15R
$$
MNZ071>073-080-081-089-090-097-098-290400-
   Southwest Minnesota

CITY           SKY/WX    TMP DP  RH WIND       PRES   REMARKS
MONTEVIDEO     CLEAR     63  54  72 NW3       30.21R
GRANITE FALLS  CLEAR     60  54  82 W5        30.21R
CANBY          CLEAR     59  54  82 W5        30.22R
MARSHALL       CLEAR     57  52  82 NW6       30.20R
REDWOOD FALLS  CLEAR     62  54  74 NW7       30.18R
OLIVIA         CLEAR     61  54  77 NW6       30.18R
PIPESTONE      CLEAR     63  54  72 CALM      30.23R
WINDOM         CLEAR     59  54  82 NW7       30.20S
WORTHINGTON    CLEAR     57  54  88 NW7       30.22S
JACKSON        CLEAR     61  54  77 NW6       30.21R
TRACY          CLEAR     62  55  77 NW6       30.21S
SLAYTON        CLEAR     58  54  87 CALM      30.23R
$$
MNZ065>067-074>077-082>085-091>093-290400-
   South Central Minnesota

CITY           SKY/WX    TMP DP  RH WIND       PRES   REMARKS
MANKATO        CLEAR     64  52  63 W6        30.16S
NEW ULM        CLEAR     63  55  77 NW6       30.17S
ST JAMES       CLEAR     61  55  82 W3        30.19S
FAIRMONT       CLEAR     61  52  72 NW6       30.18S
GLENCOE        CLEAR     65  55  70 W3        30.15S
FARIBAULT      CLEAR     64  54  68 W5        30.15S
OWATONNA       CLEAR     59  55  88 CALM      30.16R
WASECA         CLEAR     57  52  82 W3        30.17S
ALBERT LEA     CLEAR     61  54  77 CALM      30.17R
$$
MNZ078>079-086>088-094>096-290400-
   Southeast Minnesota

CITY           SKY/WX    TMP DP  RH WIND       PRES   REMARKS
ROCHESTER      CLEAR     60  54  80 W6        30.16R
RED WING       CLEAR     61  57  88 N3        30.11S
STANTON        CLEAR     65  56  72 W5        30.13R
DODGE CENTER   PTCLDY    61  55  82 W5        30.15S
WINONA         CLEAR     61  55  82 CALM      30.12S
AUSTIN         CLEAR     63  54  72 CALM      30.16R
PRESTON        CLEAR     60  56  88 W6        30.15S
$$
ABBREVIATIONS USED IN REMARKS
   TC - TEMPERATURES IN CELSIUS
  WCI - WIND CHILL INDEX
   HX - HEAT INDEX
  VSB - VISIBILITY
$$



USA.gov is the U.S. government's official web portal to all federal, state and local government web resources and services.